Погода в Ставропольской

Россия / Краснодарский край     44°42′57″N   38°49′37″E
темп.,
°C
ветер,
м/с
пор.,
м/с
влажн.,
%
обл.,
%
осадки,
мм/ч
давл.,
гПа
погр.,
м
8 мая, сб
сб800:00+10ю33745 0.0 101741
03:00+9ю3377100 0.0 101640
06:00+11ю2482100 0.0 101580
09:00+18ююв4852100 0.0 1014630
12:00+23ююз5741100 0.0 10131207
15:00+23ююз583945 0.0 1012956
18:00+19ююз275365 0.0 1011297
21:00+13ю236394 0.0 101138
9 мая, вс
вс900:00+13юз2570100 0.0 1012122
03:00+12ю2396100 0.8 1011120
06:00+10ссз81496100 2.9 1013879
09:00+8сз4997100 7.8 1016846
12:00+9ссз5891100 6.1 10181045
15:00+10ссз478799 7.1 1021990
18:00+10сз488443 0.9 1023661
21:00+6зюз22885 1.1 102524
10 мая, пн
пн1000:00+5зюз238687 0.0 102539
03:00+6зюз228294 0.0 102522
06:00+6зюз228323 0.1 102531
09:00+11ссз455797 0.4 10251348
12:00+12сз465673 0.6 10251855
15:00+13сз564988 1.0 10242105
18:00+11сз3662100 0.1 1024872
21:00+7юз338099 0.1 102367
11 мая, вт
вт1100:00+7ю3572100 0.0 1021134
03:00+9юз51262100 0.1 1019743
06:00+10зюз51073100 0.3 1018899
09:00+9юз51089100 2.8 10191014
12:00+9зюз61290100 2.4 10191112
15:00+8юз61287100 3.4 1018912
18:00+9юз41082100 0.2 1018812
21:00+9ююз3891100 1.1 1018389
12 мая, ср
ср1200:00+9ююз3788100 0.1 1017335
03:00+9юв2486100 0.1 101691
06:00+8вюв1288100 0.4 101754
09:00+12всв347595 0.4 1016665
12:00+17св35539 0.0 10141541
15:00+18св44638 0.1 1014978
18:00+17всв35750 0.1 1014454
21:00+11ю11871 0.1 101411